SCP
0 0 0 0 0 0 0 0 0 0 0 0 0 0 0 0 0 0 0 0 0 0 0 0 0 0 0 0 0 0 0 0 0 0 0 0 0 0 0 0 0 0 0
0 0 0 0 0 0 0 0 0 0 0 0 0 0 0 0 0 0 0 0 0 0 0 0 0 0 0 0 0 0 0 0 0 0 0 0 0 0 0 0 0 0 0
0 0 0 0 0 0 0 0 0 0 0 0 0 0 0 0 0 0 0 0 0 0 0 0 0 0 0 0 0 0 0 0 0 0 0 0 0 0 0 0 0 0 0
0 0 0 0 0 0 0 0 0 0 0 0 0 0 0 0 0 0 0 0 0 0 0 0 0 0 0 0 0 0 0 0 0 0 0 1 1 1 0 0 0 0 0
0 0 0 0 0 0 0 0 0 0 0 0 0 0 0 0 0 0 0 0 0 0 0 0 0 0 0 0 0 1 1 1 1 1 1 1 1 1 1 1 0 0 0
0 0 0 0 0 0 0 0 0 0 0 0 0 0 0 0 0 0 0 0 0 0 0 0 0 0 0 0 0 1 1 1 1 1 1 1 1 1 1 1 1 0 0
0 0 0 0 0 0 0 0 0 0 0 0 0 0 0 0 0 0 0 0 0 0 0 0 0 0 0 1 1 1 1 1 1 1 1 1 1 1 1 1 1 1 0
0 0 0 0 0 0 0 0 0 0 0 0 0 0 0 0 0 0 0 0 0 0 0 0 0 0 0 1 1 1 1 1 1 1 1 1 1 1 1 1 1 1 1
0 0 0 0 0 0 0 0 0 0 0 0 0 0 0 0 0 0 0 0 0 0 0 0 0 0 0 0 0 0 0 1 1 1 1 1 1 1 1 1 1 1 1
0 0 0 0 0 0 0 0 0 0 0 0 0 0 0 0 0 0 0 0 0 0 0 0 0 0 0 0 0 0 0 0 0 0 0 1 1 1 1 1 1 1 1
0 0 0 0 0 0 0 0 0 0 0 0 0 0 0 0 0 0 0 0 0 0 0 0 0 0 0 0 0 0 0 0 0 0 0 0 1 1 1 1 1 1 1
0 0 0 0 0 0 0 0 0 0 0 0 0 0 0 0 0 0 0 0 0 0 0 0 0 0 0 0 0 0 0 0 0 0 0 0 1 1 1 1 1 1 1
0 0 0 0 0 0 0 0 0 0 0 0 0 0 0 0 0 0 0 0 0 0 0 0 0 0 0 0 0 0 0 0 0 0 0 0 0 1 1 1 1 1 1
0 0 0 0 0 0 0 0 0 0 0 0 0 0 0 0 0 0 0 0 0 0 0 0 0 0 0 0 0 0 0 0 0 0 0 0 0 0 0 0 1 1 1
0 0 0 0 0 0 0 0 0 0 0 0 0 0 0 0 0 0 0 0 0 0 0 0 0 0 0 0 0 0 0 0 0 0 0 0 0 0 0 0 0 0 0
0 0 0 0 0 0 0 0 0 0 0 0 0 0 0 0 0 0 0 0 0 0 0 0 0 0 0 0 0 0 0 0 0 0 0 0 0 0 0 0 0 0 0
0 0 0 0 0 0 0 0 0 0 0 0 0 0 0 0 0 0 0 0 0 0 0 0 0 0 0 0 0 0 0 0 0 0 0 0 0 0 0 0 0 0 0
0 0 0 0 0 0 0 0 0 0 0 0 0 0 0 0 0 0 0 0 0 0 0 0 0 0 0 0 0 0 0 0 0 0 0 0 0 0 0 0 0 0 0
0 0 0 0 0 0 0 0 0 0 0 0 0 0 0 0 0 0 0 0 0 0 0 0 0 0 0 0 0 0 0 0 0 0 0 0 0 0 0 0 0 0 0
0 0 0 0 0 0 0 0 0 0 0 0 0 0 0 0 0 0 0 0 0 0 0 0 0 0 0 0 0 0 0 0 0 0 0 0 0 0 0 0 0 0 0
0 0 0 0 0 0 0 0 0 0 0 0 0 0 0 0 0 0 0 0 0 0 0 0 0 0 0 0 0 0 0 0 0 0 0 0 0 0 0 0 0 0 0
0 0 0 0 0 0 0 0 0 0 0 0 0 0 0 0 0 0 0 0 0 0 0 0 0 0 0 0 0 0 0 0 0 0 0 0 0 0 0 0 0 0 0
0 0 0 0 0 0 0 0 0 0 0 0 0 0 0 0 0 0 0 0 0 0 0 0 0 0 0 0 0 0 0 0 0 0 0 0 0 0 0 0 0 0 0
0 0 0 0 0 0 0 0 0 0 0 0 0 0 0 0 0 0 0 0 0 0 0 0 0 0 0 0 0 0 0 0 0 0 0 0 0 0 0 0 0 0 0
0 0 0 0 0 0 0 0 0 0 0 0 0 0 0 0 0 0 0 0 0 0 0 0 0 0 0 0 0 0 0 0 0 0 0 0 0 0 0 0 0 0 0
0 0 0 0 0 0 0 0 0 0 0 0 0 0 0 0 0 0 0 0 0 0 0 0 0 0 0 0 0 0 0 0 0 0 0 0 0 0 0 0 0 0 0
Wind_Speed
2 2 1 1 1 1 2 2 2 2 2 1 1 2 2 2 2 2 1 4 6 6 7 7 7 8 8 8 8 8 8 8 7 7 7 8 8 9 9 8 9 8 8
3 2 2 1 1 1 1 2 2 1 1 1 1 1 1 1 1 1 1 2 4 5 6 6 7 7 8 8 8 8 8 8 8 7 7 8 8 8 9 9 9 8 8
3 3 2 1 1 1 2 2 2 2 1 1 1 1 1 1 1 1 1 1 1 3 4 5 6 6 7 7 8 8 8 8 8 8 7 7 8 8 8 9 9 9 8
4 3 2 2 2 2 2 2 2 2 2 1 1 1 1 0 0 1 1 1 0 1 2 4 4 5 5 6 6 7 8 8 8 8 8 8 8 8 9 9 9 9 8
5 4 3 2 2 2 2 2 2 2 1 1 1 1 1 1 1 0 0 1 1 1 1 2 3 4 5 5 5 6 7 7 8 9 10 10 10 9 9 9 9 9 9
5 4 3 3 3 3 2 2 3 2 2 1 2 3 2 2 1 1 1 0 0 1 1 1 1 2 3 4 4 6 7 7 7 8 9 10 11 11 10 10 10 10 10
5 4 4 3 3 3 2 3 2 3 2 1 2 2 3 3 3 2 2 1 1 0 0 0 1 1 1 2 3 4 5 6 6 7 7 8 10 10 10 11 11 11 11
5 5 5 3 3 3 3 2 2 2 2 2 2 2 2 3 3 4 3 2 2 1 1 1 0 0 1 1 1 3 3 4 5 6 6 6 7 9 10 10 11 11 12
5 5 5 4 3 3 3 2 2 3 3 2 2 3 3 2 1 2 3 3 3 2 2 2 1 1 1 0 1 2 2 2 3 4 4 5 6 7 9 10 11 11 12
5 5 5 5 4 3 3 2 2 2 3 2 2 2 2 2 3 1 2 3 3 4 4 3 2 2 1 1 1 1 1 2 3 3 4 4 4 4 6 9 10 11 12
4 5 5 5 4 3 3 3 3 3 2 2 2 2 3 3 2 2 1 2 3 3 3 3 2 2 2 1 1 1 1 1 2 3 4 4 5 5 6 8 10 10 11
2 4 5 4 4 3 3 3 3 4 3 3 2 2 2 2 2 2 2 1 1 2 3 3 3 3 2 2 2 2 2 2 2 3 4 5 5 6 7 8 9 10 10
3 3 4 4 4 4 4 4 4 3 3 4 3 2 2 2 2 2 3 1 1 2 3 2 2 3 2 2 2 4 4 4 3 4 5 6 6 7 8 8 9 9 10
4 5 5 5 5 5 5 4 3 3 3 3 4 3 2 2 1 2 3 3 1 1 2 3 2 2 3 2 3 4 3 5 5 5 6 7 7 7 8 8 9 9 10
5 6 6 6 5 5 5 4 3 3 4 3 3 3 2 2 2 1 2 2 3 1 1 2 2 3 3 2 3 3 3 5 6 6 6 6 7 7 7 8 8 9 9
6 7 6 6 5 5 5 4 3 3 4 3 2 3 3 2 2 2 2 1 2 2 1 2 2 3 3 3 4 3 3 6 6 6 5 5 5 5 6 6 7 7 8
7 7 7 6 6 5 5 4 4 4 4 3 3 3 3 2 2 2 2 2 1 2 2 2 2 2 3 3 4 4 3 3 3 5 6 5 5 5 5 5 6 6 7
7 7 7 7 6 6 6 6 5 5 5 5 4 3 3 2 2 2 2 2 2 2 2 2 2 2 3 3 4 4 4 3 4 6 6 6 6 6 6 6 7 7 8
7 7 7 7 7 6 6 6 5 5 5 5 5 5 4 4 3 2 2 2 2 2 2 2 2 2 2 2 3 3 4 3 4 5 6 6 6 7 8 8 9 9 9
8 7 7 7 7 7 6 6 6 5 5 4 4 5 5 5 5 4 3 3 3 2 2 2 2 2 3 3 2 3 4 3 4 5 5 6 6 8 9 9 10 10 10
8 8 7 6 6 6 6 7 6 6 5 5 4 5 5 7 7 6 4 4 4 3 2 2 3 2 3 3 3 2 4 5 5 3 4 4 4 5 6 8 9 10 11
7 7 8 8 7 6 9 11 8 6 6 6 5 5 5 6 8 8 8 8 7 5 5 4 3 4 6 5 4 3 3 4 5 2 3 5 4 6 7 6 9 11 11
7 7 8 8 8 8 10 11 11 6 6 6 6 5 4 4 5 5 6 6 8 10 10 6 6 7 6 5 4 5 5 5 7 5 3 7 6 7 7 8 11 13 12
7 7 8 8 7 8 11 11 11 7 6 6 6 6 6 5 5 5 4 5 6 7 8 8 8 9 8 7 6 6 6 6 7 6 5 6 6 7 8 7 11 13 13
7 7 6 8 8 8 11 12 10 5 5 7 7 7 7 7 7 7 5 6 7 7 7 10 11 11 12 12 8 5 5 5 7 6 4 5 5 6 6 7 8 11 12
8 8 7 8 9 8 10 12 12 6 6 6 5 6 9 10 9 8 6 6 8 8 6 5 6 8 8 9 9 8 7 7 7 6 4 5 5 4 6 5 5 6 7
Wind_Direction
140 131 116 103 104 99 103 97 91 92 83 82 103 127 145 149 152 152 178 194 188 191 193 193 193 193 190 189 188 186 186 184 180 178 179 178 176 174 172 172 169 166 165
146 139 137 140 140 133 125 121 116 103 85 81 79 109 125 137 156 162 176 198 198 203 206 203 203 203 201 198 197 197 198 197 191 188 188 188 187 185 185 184 182 178 175
143 139 141 144 144 127 117 100 89 79 84 78 51 56 116 147 170 177 175 177 206 222 227 223 218 214 210 208 206 204 205 204 199 200 201 198 196 195 195 195 192 189 187
142 138 141 142 132 117 111 109 94 81 66 72 48 9 45 74 191 190 169 171 184 241 249 246 240 231 225 221 216 213 211 210 206 207 208 208 207 203 203 203 201 198 196
142 137 135 123 119 107 103 116 88 95 87 73 63 44 27 20 356 334 186 189 201 225 243 267 263 252 242 236 227 224 220 218 216 215 216 214 214 211 209 209 207 203 202
137 130 122 115 113 104 92 91 95 76 79 78 72 56 31 23 34 24 351 2 256 232 224 251 265 267 257 252 241 232 228 225 223 222 223 222 220 217 213 213 212 210 209
137 130 124 115 112 112 119 124 109 88 60 52 82 52 28 33 45 35 22 24 16 341 90 236 239 252 269 262 251 238 232 233 233 231 230 230 226 223 219 218 218 216 216
142 138 131 130 123 110 104 109 115 106 61 41 106 97 51 21 18 26 27 35 31 27 26 358 291 256 276 279 265 245 232 237 240 241 240 239 232 226 225 223 222 223 223
138 132 137 132 127 123 124 120 124 125 117 53 53 131 136 170 352 7 23 32 31 39 26 15 14 337 290 278 289 268 236 238 250 254 258 254 246 238 232 231 229 229 230
135 135 135 132 130 124 124 126 114 119 127 122 71 51 87 134 133 73 2 10 21 33 21 16 12 359 343 313 299 276 265 252 256 267 275 273 270 268 256 247 241 236 234
131 138 137 133 130 124 120 109 105 105 113 130 131 115 86 70 76 126 98 355 8 13 18 16 14 8 4 354 326 309 296 288 274 272 274 279 271 269 271 265 256 249 243
120 134 137 135 134 129 125 119 111 106 100 104 105 110 127 125 122 120 127 73 357 337 349 4 17 11 13 15 350 341 325 308 291 283 280 281 282 275 273 273 269 265 259
153 162 148 145 140 136 131 124 114 108 108 111 113 104 105 114 133 129 122 123 45 336 335 347 2 7 16 18 356 349 341 326 309 297 293 290 283 278 274 272 273 273 269
165 161 154 149 144 141 137 130 119 119 115 115 115 114 103 99 120 135 137 137 106 4 347 329 328 352 359 354 345 348 335 327 318 307 301 297 292 283 278 272 272 275 272
156 155 155 149 147 145 143 140 132 128 122 116 121 118 106 95 96 104 123 142 145 155 278 307 314 327 339 340 342 343 328 321 320 312 304 301 299 293 285 274 268 268 266
155 153 154 152 150 150 149 142 137 138 130 127 130 121 111 108 102 105 114 121 135 151 201 263 277 300 317 337 346 339 321 318 316 315 312 308 307 307 302 293 281 274 267
160 163 163 160 160 160 158 153 155 154 148 147 146 145 145 139 129 131 127 126 133 147 190 267 270 290 300 319 331 331 321 313 309 305 304 301 301 301 300 297 291 286 278
168 167 164 164 170 170 169 170 173 172 170 172 174 167 175 165 158 158 156 163 173 182 192 245 283 293 290 302 309 314 320 318 307 300 299 296 294 294 294 292 286 283 279
166 166 166 173 178 178 180 186 183 182 185 187 186 187 192 180 193 194 190 191 194 191 195 222 269 280 285 298 308 304 306 304 304 300 294 289 290 293 292 290 285 281 277
170 174 177 182 183 183 186 187 186 187 191 198 201 203 202 200 208 205 207 210 202 197 200 226 261 275 276 284 282 292 304 300 300 300 294 288 284 288 286 284 282 279 275
181 179 178 184 186 187 193 189 189 192 196 206 215 218 220 221 220 212 212 210 200 206 215 231 254 266 272 275 275 273 287 299 290 274 290 289 289 287 285 279 275 272 272
180 177 185 189 193 202 201 196 190 193 199 206 219 228 236 236 236 231 228 220 203 206 219 226 244 255 267 264 264 264 276 297 296 274 280 291 284 282 281 276 270 267 269
182 186 193 194 201 211 206 203 200 193 203 210 216 224 236 236 229 232 240 241 231 228 220 219 241 251 258 254 256 270 262 260 267 275 272 282 280 279 279 274 265 264 266
187 193 198 200 205 218 213 210 206 201 210 218 220 221 228 242 239 229 240 253 255 248 235 229 237 249 252 254 243 254 268 272 270 263 235 266 278 277 282 278 268 263 264
193 197 197 200 207 221 215 211 198 197 216 227 227 224 225 237 243 231 232 252 267 269 253 237 238 249 257 258 251 251 254 259 277 279 225 240 270 279 278 273 270 263 263
198 198 206 207 210 219 216 209 197 200 218 231 236 234 230 232 241 231 224 237 258 269 275 277 265 266 266 266 250 234 242 253 266 276 242 224 262 278 284 266 268 273 272